Regional Weather Roundup
Issued by NWS

Home | Current Version | Previous Version | Graphics & Text | Print | Product List | Glossary Off
Versions: 1 2 3 4 5 6 7 8 9 10 11 12 13 14 15 16 17 18 19 20 21 22 23 24 25 26 27 28 29 30 31 32 33 34 35 36 37 38 39 40 41 42 43 44 45 46 47 48 49 50

000
ASUS43 KMPX 280201
RWRMN
WEATHER ROUNDUP FOR MINNESOTA
NATIONAL WEATHER SERVICE TWIN CITIES/CHANHASSEN MN
900 PM CDT MON JUL 27 2015


NOTE: "FAIR" INDICATES FEW OR NO CLOUDS BELOW 12,000 FEET WITH NO
SIGNIFICANT WEATHER AND/OR OBSTRUCTIONS TO VISIBILITY. N/A MEANS
CURRENT SKY AND/OR WEATHER CONDITIONS ARE NOT AVAILABLE.

MNZ060>063-068>070-280300-
   Twin Cities Metro

CITY           SKY/WX    TMP DP  RH WIND       PRES   REMARKS
TWIN CITIES    PTCLDY    81  72  74 SE9       29.89S
ST PAUL        CLEAR     80  72  76 SE10      29.89S
CRYSTAL        PTCLDY    83  71  67 SE12      29.87F
LAKEVILLE      CLEAR     75  72  88 SE5       29.91R
EDEN PRAIRIE   PTCLDY    80  71  74 SE9       29.88S
SOUTH ST PAUL  CLEAR     81  71  72 SE3       29.90R
LAKE ELMO      FAIR      79  72  78 E5        29.92S
$$
MNZ001>005-007-008-013>017-022>024-027-028-280300-
   Northwest Minnesota

CITY           SKY/WX    TMP DP  RH WIND       PRES   REMARKS
BEMIDJI        LGT RAIN  77  71  80 SE13      29.86S
HALLOCK        CLEAR     81  72  74 SE9       29.76S
ROSEAU         CLEAR     79  72  78 SE5       29.82S
WARROAD        CLEAR     81  73  78 SE5       29.84S
THIEF RVR FALL CLEAR     79  72  78 E8        29.80S
CROOKSTON      CLEAR     81  72  74 SE7       29.76F
FOSSTON        CLEAR     77  70  78 CALM      29.82F
DETROIT LAKES  CLEAR     81  70  69 SE12      29.83S
MOORHEAD       CLEAR     81  72  74 SE7       29.76F
PARK RAPIDS    PTCLDY    81  69  67 SE7       29.85F
MAHNOMEN       FAIR      80  70  71 SE6       29.81F
$$
MNZ006-009>011-018-025>026-280300-
   North Central Minnesota

CITY           SKY/WX    TMP DP  RH WIND       PRES   REMARKS
BAUDETTE       CLEAR     79  67  66 S6        29.85S
FLAG ISLAND    CLEAR     82  72  69 SE7       29.83S
INTL FALLS     PTCLDY    75  65  70 SE5       29.88S
WASKISH        CLEAR     77  68  73 CALM      29.86S
BIG FORK       PTCLDY    77  66  69 CALM      29.90S
LONGVILLE      PTCLDY    77  70  78 SE5       29.89S
GRAND RAPIDS   CLEAR     77  66  69 SE6       29.91S
CRANE LAKE     CLEAR     72  68  88 CALM      29.92S
ORR            PTCLDY    75  63  64 CALM      29.89S
COOK           PTCLDY    79  64  61 SE3       29.93R
WALKER         FAIR      78  71  77 SE8       29.87S
$$
MNZ012-019>021-037-280300-
   Northeast Minnesota

CITY           SKY/WX    TMP DP  RH WIND       PRES   REMARKS
DULUTH         PTCLDY    75  63  66 SE9       29.95S
ELY            CLEAR     75  55  50 SE6       29.95S
HIBBING        CLEAR     75  65  70 SE5       29.93R
EVELETH        CLEAR     77  63  61 SE3       29.95R
DULUTH HARBOR  PTCLDY    72  68  88 NE6       29.93S
TWO HARBORS    CLEAR     73  66  78 CALM      29.93S
SILVER BAY     CLEAR     73  64  73 NE3       29.94S
GRAND MARAIS     N/A     64  62  93 NE3       29.94R
G MARAIS ARPRT CLEAR     66  57  72 CALM      30.01S
$$
MNZ029>031-032-039>041-046>048-054>057-064-280300-
   West Central Minnesota

CITY           SKY/WX    TMP DP  RH WIND       PRES   REMARKS
FERGUS FALLS   CLEAR     81  72  74 SE10      29.78S
WHEATON        CLEAR     77  70  78 SE13      29.79R
MORRIS         CLEAR     79  73  83 SE13G18   29.80S
ALEXANDRIA     CLEAR     78  72  81 SE13      29.86S
ELBOW LAKE     FAIR      78  73  82 SE13      29.81S
WADENA         CLEAR     79  70  73 SE9       29.85S
GLENWOOD       CLEAR     77  72  83 SE9       29.86R
APPLETON       CLEAR     81  72  74 SE12      29.79F
BENSON         PTCLDY    81  70  69 S9        29.82S
ORTONVILLE     CLEAR     79  72  78 SE10      29.78S
MADISON        CLEAR     79  72  78 SE10      29.79F
WILLMAR        FAIR      79  73  83 SE8       29.86S
$$
MNZ033>034-036-042>043-049>051-058-059-280300-
   Central Minnesota

CITY           SKY/WX    TMP DP  RH WIND       PRES   REMARKS
ST CLOUD       CLEAR     79  72  79 SE8       29.86F
SAUK CENTRE    FAIR      77  72  85 SE8       29.86S
PAYNESVILLE    CLEAR     77  71  81 E9        29.87S
AITKIN         CLEAR     79  70  73 SE8       29.89S
PINE RIVER     PTCLDY    79  70  73 SE9       29.91S
BRAINERD       PTCLDY    78  70  76 SE7       29.88S
STAPLES        CLEAR     79  70  73 SE7       29.86S
LONG PRAIRIE   FAIR      77  70  78 SE8       29.88S
LITTLE FALLS   CLEAR     77  68  73 SE6       29.87F
LITCHFIELD     CLEAR     79  75  89 SE7       29.87F
BUFFALO        CLEAR     80  71  74 SE8       29.88F
MAPLE LAKE     CLEAR     81  73  78 SE6       29.88F
$$
MNZ037-044-045-052-053-280300-
   East Central Minnesota

CITY           SKY/WX    TMP DP  RH WIND       PRES   REMARKS
PRINCETON      CLEAR     81  72  74 E7        29.89F
MORA           PTCLDY    75  68  78 CALM      29.92F
CAMBRIDGE      CLEAR     81  68  65 E6        29.88F
RUSH CITY      CLEAR     77  69  77 SE5       29.91F
MOOSE LAKE     CLEAR     77  68  73 CALM      29.91S
HINCKLEY       FAIR      77  70  78 SE5       29.92S
CLOQUET        MOCLDY    75  64  69 E5        29.94S
MCGREGOR       CLEAR     77  68  73 SE6       29.92S
$$
MNZ071>073-080-081-089-090-097-098-280300-
   Southwest Minnesota

CITY           SKY/WX    TMP DP  RH WIND       PRES   REMARKS
MONTEVIDEO     CLEAR     79  72  78 S7        29.83S
GRANITE FALLS  CLEAR     78  72  80 E9        29.83S
CANBY          CLEAR     78  70  76 SE10      29.80F
MARSHALL       CLEAR     79  70  73 SE10      29.83S
REDWOOD FALLS  CLEAR     78  70  76 SE10      29.83S
OLIVIA         CLEAR     73  70  88 SE8       29.84S
PIPESTONE      CLEAR     79  72  78 SE9       29.83S
WINDOM         CLEAR     77  70  78 SE9       29.87R
WORTHINGTON    CLEAR     77  70  78 SE10      29.85S
JACKSON        CLEAR     75  70  83 SE12G17   29.89R
SLAYTON        CLEAR     76  73  89 SE8       29.85S
$$
MNZ065>067-074>077-082>085-091>093-280300-
   South Central Minnesota

CITY           SKY/WX    TMP DP  RH WIND       PRES   REMARKS
MANKATO        CLEAR     79  70  73 SE10      29.88S
NEW ULM        CLEAR     79  72  78 SE9       29.86S
ST JAMES       CLEAR     77  72  83 SE8       29.88S
FAIRMONT       CLEAR     75  64  69 SE14      29.88S
GLENCOE        CLEAR     79  74  85 SE9       29.87S
FARIBAULT      CLEAR     79  72  78 SE7       29.92R
OWATONNA       CLEAR     79  70  73 SE12      29.92S
WASECA         CLEAR     77  72  83 SE7       29.92R
ALBERT LEA     PTCLDY    77  73  88 SE9       29.92S
$$
MNZ078>079-086>088-094>096-280300-
   Southeast Minnesota

CITY           SKY/WX    TMP DP  RH WIND       PRES   REMARKS
ROCHESTER      CLEAR     75  71  87 SE7       29.96R
RED WING       CLEAR     81  70  69 SE8       29.91R
STANTON        CLEAR     80  71  74 SE7       29.90R
DODGE CENTER   PTCLDY    75  70  83 SE9       29.95R
WINONA         CLEAR     79  70  73 CALM      29.94S
AUSTIN         CLEAR     75  72  88 SE5       29.94S
PRESTON        PTCLDY    75  68  78 SE6       29.97R
$$
ABBREVIATIONS USED IN REMARKS
   TC - TEMPERATURES IN CELSIUS
  WCI - WIND CHILL INDEX
   HX - HEAT INDEX
  VSB - VISIBILITY
$$



USA.gov is the U.S. government's official web portal to all federal, state and local government web resources and services.